WALDBURG Weather Reports


Display with metric or nautical units.
time (UTC)temp
F
wind
direction
speed
MPH
gust
MPH
rain 1hr
in
rain 24hr
in
rain mn
in
humidity
%
barometer
mb
20260505040211 46 69 8.0 0.0 0.00 0.00 0.00 94 1007.3
20260505033211 46 53 6.0 0.0 0.00 0.00 0.00 94 1007.5
20260505030213 47 44 3.0 0.0 0.00 0.00 0.00 94 1007.7
20260505023211 47 69 2.0 0.0 0.00 0.00 0.00 92 1008.0
20260505020211 47 53 5.0 0.0 0.00 0.00 0.00 91 1008.1
20260505013211 49 147 0.0 0.0 0.00 0.00 0.00 92 1008.3
20260505010211 49 248 0.0 0.0 0.00 0.00 0.00 90 1008.8
20260505003208 50 248 2.0 0.0 0.00 0.00 0.00 90 1009.2
20260505000211 50 211 3.0 0.0 0.00 0.00 0.00 88 1009.2
20260504233209 51 201 2.0 0.0 0.00 0.00 0.00 87 1009.4
20260504230210 51 212 4.0 0.0 0.00 0.00 0.00 84 1009.7
20260504223215 53 201 3.0 0.0 0.00 0.00 0.00 82 1010.1
20260504220209 53 219 3.0 0.0 0.00 0.00 0.00 78 1010.1
20260504213209 55 197 5.0 0.0 0.00 0.00 0.00 73 1010.3
20260504210209 57 241 3.0 0.0 0.00 0.00 0.00 62 1010.1
20260504203209 59 259 2.0 0.0 0.00 0.00 0.00 53 1010.1
20260504200209 60 283 3.0 0.0 0.00 0.00 0.00 52 1009.9
20260504193209 59 42 3.0 0.0 0.00 0.00 0.00 55 1009.6
20260504190209 60 59 7.0 0.0 0.00 0.00 0.00 53 1009.4
20260504183209 63 269 7.0 0.0 0.00 0.00 0.00 46 1009.6
20260504180214 64 260 11.0 0.0 0.00 0.00 0.00 50 1009.8
20260504173209 65 256 13.0 0.0 0.00 0.00 0.00 48 1009.9
20260504170210 66 256 7.0 0.0 0.00 0.00 0.00 45 1009.7
20260504160210 69 274 9.0 0.0 0.00 0.00 0.00 40 1009.4
20260504150210 71 196 1.0 0.0 0.00 0.00 0.00 34 1009.2
20260504140209 72 196 1.0 0.0 0.00 0.00 0.00 34 1009.4
20260504130215 74 248 7.0 0.0 0.00 0.00 0.00 34 1009.8
20260504120210 73 71 5.0 0.0 0.00 0.00 0.00 35 1010.2
20260504110210 71 71 5.0 0.0 0.00 0.00 0.00 40 1010.6
20260504100212 70 71 10.0 0.0 0.00 0.00 0.00 45 1011.0
20260504080210 64 86 7.0 0.0 0.00 0.00 0.00 56 1012.2
20260504070212 56 51 0.0 0.0 0.00 0.00 0.00 71 1012.4
20260504060212 54 32 6.0 0.0 0.00 0.00 0.00 75 1012.2
20260504050210 52 78 6.0 0.0 0.00 0.00 0.00 75 1012.2
20260504043211 54 27 7.0 0.0 0.00 0.00 0.00 74 1012.3